Zurück zum Katalog

O3B FM9

AktivKommunikationMEO
NORAD 40351·PAYLOAD·🇱🇺 Luxembourg

Gestartet Dec 18, 2014 von Guiana Space Centre

Loading…

Nächste Überflüge (nächste 24 Stunden)

TLE

AktuellSource: CelesTrak SupGP

Epoche: Sep 13, 2026, 15:00 UTC

1 40351C 14083D   26256.62500000  .00000000  00000+0  00000+0 0  2567
2 40351   0.0543 347.2590 0002614 183.0698 275.3699  5.00116176    14

Verfolge O3B FM9 in Echtzeit mit AllMySat

Download on the App Store